Regional Weather Roundup
Issued by NWS

Home | Current Version | Previous Version | Text Only | Print | Product List | Glossary Off
Versions: 1 2 3 4 5 6 7 8 9 10 11 12 13 14 15 16 17 18 19 20 21 22 23 24 25 26 27 28 29 30 31 32 33 34 35 36 37 38 39 40 41 42 43 44 45 46 47 48 49 50

000
ASUS45 KTFX 191204
RWRMT
MONTANA HOURLY WEATHER ROUNDUP
NATIONAL WEATHER SERVICE GREAT FALLS MT
604 AM MDT FRI SEP 19 2014

NOTE: "FAIR" INDICATES FEW OR NO CLOUDS BELOW 12000 FEET WITH NO
SIGNIFICANT WEATHER AND/OR OBSTRUCTIONS TO VISIBILITY.

* THESE STATIONS ARE NOT UNDER NWS QUALITY CONTROL. THEY DO NOT
   REPORT WEATHER SUCH AS PRECIPITATION OR FOG.

MTZ001>007-043-191300-
WEST OF THE DIVIDE
CITY           SKY/WX    TMP DP  RH WIND       PRES   REMARKS
KALISPELL      CLOUDY    61  52  72 S7        29.89R
MISSOULA       CLOUDY    63  46  54 W9        29.96R
BUTTE          CLOUDY    50  45  83 CALM      30.03R
MULLAN PASS    CLOUDY    46  43  89 SW8       30.05R
* ESSEX        N/A       54  52  93 SW1        N/A
* LINCOLN      N/A       59  44  58 SW6G17     N/A
* LOOKOUT PASS N/A       53  45  74 E10        N/A
* POLSON       N/A       59  49  70 W2         N/A
* RONAN APT    CLOUDY    63  48  58 N/A        N/A
* SEELEY LAKE  N/A       59  44  58 N2         N/A
* THOMP F APT  MOCLDY    46  44  93 N4G9       N/A
$$

MTZ008-052>055-191300-
SOUTHWEST MONTANA
CITY           SKY/WX    TMP DP  RH WIND       PRES   REMARKS
BOZEMAN        CLOUDY    48  46  93 SE6       29.97R
DILLON         CLEAR     50  43  77 S14       30.01R
W YELLOWSTONE  FOG       41  41 100 CALM      30.10S VSB M1/4
* THREE FORKS  MOCLDY    52  30  43 N/A        N/A
* BOULDER HILL N/A       53  39  59 S6         N/A
* MONIDA PASS  N/A       42  42 100 NE1G9      N/A
* RAYNOLDS PAS N/A       44  25  47 SE9        N/A
* WHITEHALL    N/A       53  47  80 E1G6       N/A
* WISE RIVER   N/A       45  40  83 NW4        N/A
$$

MTZ009>010-012-014-046-048-049-054-191300-
EAST SLOPES AND CENTRAL MONTANA
CITY           SKY/WX    TMP DP  RH WIND       PRES   REMARKS
CUT BANK       CLOUDY    59  45  60 W10       29.79R
GREAT FALLS    PTCLDY    57  43  60 SW14      29.82R
HELENA         CLOUDY    64  43  47 CALM      29.93R
MALMSTROM AFB  PTCLDY    63  43  48 W14       29.83R
* CONRAD       CLOUDY    59  52  78 SW9        N/A
* EAST GLACIER N/A       57  42  57 W14G27     N/A
* MONARCH      N/A       57  37  47 W19G29     N/A
* PENDROY      N/A       59  46  62 NW11       N/A
* SAINT MARY   N/A       58  43  58 S10G25     N/A
* SWEET GRASS  N/A       56  46  69 W11G20     N/A
$$

MTZ011-013-016-021-035-040-045-047-050-051-191300-
NORTH CENTRAL MONTANA
CITY           SKY/WX    TMP DP  RH WIND       PRES   REMARKS
HAVRE          MOCLDY    59  46  62 SW15      29.72R
LEWISTOWN      MOCLDY    63  43  48 SW15      29.83R
* CHESTER      N/A       57  43  60 W6         N/A
* DENTON       N/A       61  45  56 SW9        N/A
* GEYSER       N/A       61  43  52 W13G20     N/A
* JUDITH GAP   N/A       56  47  72 SW9        N/A
* LOMA         N/A       61  45  56 W11        N/A
$$

MTZ017>020-022>027-061-062-191300-
NORTHEAST MONTANA
CITY           SKY/WX    TMP DP  RH WIND       PRES   REMARKS
GLASGOW        CLEAR     55  46  72 NW6       29.66R
GLENDIVE       CLOUDY    63  52  68 W14       29.70R
JORDAN         PTCLDY    52  50  93 W6        29.72R
SIDNEY         CLOUDY    64  54  70 NW9       29.63R
WOLF POINT     FOG       55  52  90 SW10      29.65R
* BEAVER HILL  N/A       62  53  73 SW11G16    N/A
* CIRCLE       N/A       60  50  70 N/A        N/A
* LINDSAY DVD  N/A       61  50  67 W11        N/A
* NAVAJO       N/A       58  46  65 W12G19     N/A
$$

MTZ028>042-056>058-191300-
SOUTHCENTRAL AND SOUTHEAST MONTANA
CITY           SKY/WX    TMP DP  RH WIND       PRES   REMARKS
BAKER          MOCLDY    63  54  73 W12       29.73R
BILLINGS       CLEAR     63  50  63 W14       29.86R
LIVINGSTON     MOCLDY    55  46  72 N9        29.93R
MILES CITY     MOCLDY    61  52  72 W8        29.73R
* LAUREL APT   CLEAR     55  48  77 SW8        N/A
* ROUNDUP APT  PTCLDY    57  46  67 SW6        N/A
* ALZADA       N/A       61  53  75 W2         N/A
* HYSHAM       N/A       59  51  75 W5         N/A
* LAME DEER    N/A       60  51  72 W12        N/A
* REED POINT   N/A       50  49  96 N/A        N/A
* ROSCOE HILL  N/A       58  34  41 SW6        N/A
$$

REGIONAL REPORTS...DAKOTAS
CITY           SKY/WX    TMP DP  RH WIND       PRES   REMARKS
WILLISTON      CLOUDY    63  52  68 W13       29.59R
DICKINSON      CLOUDY    63  54  73 W9        29.65R
BEACH          N/A       63  54  73 W13       29.69R
CROSBY         CLEAR     63  52  68 W13G20    29.55R
TIOGA          MOCLDY    57  57 100 SW8       29.59F
WATFORD CITY   CLEAR     61  55  81 SW13      29.59R
BISMARCK       LGT RAIN  66  61  84 SW14G24   29.63R
GRAND FORKS    CLOUDY    64  57  78 S15       29.56F
FARGO          LGT RAIN  63  55  75 S16G28    29.64F
BUFFALO SD     MOCLDY    61  54  78 W14       29.67R
RAPID CITY     CLOUDY    61  52  72 CALM      29.77S
$$

REGIONAL REPORTS...WYOMING/IDAHO/WASHINGTON
CITY           SKY/WX    TMP DP  RH WIND       PRES   REMARKS
GILLETTE       CLOUDY    59  54  84 SW13      29.87R
SHERIDAN       CLOUDY    59  52  78 CALM      29.85R
CODY           MOCLDY   N/A N/A N/A N/A        N/A
YELLOWSTONE LA CLEAR     37  36  96 CALM      30.17R
SALMON         PTCLDY    41  37  86 CALM      30.03R
MULLAN PASS    CLOUDY    46  43  89 SW8       30.05S
SAND POINT     CLOUDY    59  48  67 SW8       29.92R
SPOKANE        PTCLDY    55  48  77 S9        29.95R

$$




USA.gov is the U.S. government's official web portal to all federal, state and local government web resources and services.